• In Hungary
  • List of Countries
  • For 7 days
  • Water Temperature
  • Satellite Maps
  • Weather Map
  • News
  • Weather Widgets
  • user-avatar
    Login

    Hourly Weather Larisa

    Today, 26 September, Wednesday

    Time Temperature Precipitation Wind Pressure Humidity
    00:00 +14°C° 0 mm 3 mps 763 mmHg 50%
    01:00 +14°C° 0 mm 3 mps 763 mmHg 50%
    02:00 +14°C° 0 mm 3 mps 763 mmHg 50%
    03:00 +14°C° 0 mm 3 mps 763 mmHg 51%
    04:00 +14°C° 0 mm 3 mps 763 mmHg 51%
    05:00 +14°C° 0 mm 4 mps 763 mmHg 51%
    06:00 +14°C° 0 mm 4 mps 763 mmHg 51%
    07:00 +14°C° 0 mm 4 mps 764 mmHg 51%
    08:00 +15°C° 0 mm 4 mps 764 mmHg 49%
    09:00 +17°C° 0 mm 4 mps 764 mmHg 47%
    10:00 +17°C° 0 mm 4 mps 764 mmHg 45%
    11:00 +18°C° 0 mm 4 mps 764 mmHg 43%
    12:00 +17°C° 0 mm 5 mps 763 mmHg 40%
    13:00 +19°C° 0 mm 5 mps 763 mmHg 38%
    14:00 +19°C° 0 mm 5 mps 763 mmHg 36%
    15:00 +17°C° 0 mm 5 mps 762 mmHg 35%
    16:00 +17°C° 0 mm 5 mps 762 mmHg 34%
    17:00 +17°C° 0 mm 4 mps 762 mmHg 37%
    18:00 +15°C° 0 mm 4 mps 763 mmHg 40%
    19:00 +14°C° 0 mm 4 mps 763 mmHg 43%
    20:00 +14°C° 0 mm 4 mps 763 mmHg 44%
    21:00 +13°C° 0 mm 4 mps 764 mmHg 46%
    22:00 +13°C° 0 mm 5 mps 764 mmHg 47%
    23:00 +12°C° 0 mm 4 mps 764 mmHg 49%

    Tomorrow, 27 September, Thursday

    Time Temperature Precipitation Wind Pressure Humidity
    00:00 +12°C° 0 mm 4 mps 764 mmHg 50%
    01:00 +11°C° 0 mm 4 mps 764 mmHg 51%
    02:00 +11°C° 0 mm 4 mps 763 mmHg 52%
    03:00 +10°C° 0 mm 4 mps 763 mmHg 53%
    04:00 +10°C° 0 mm 4 mps 763 mmHg 54%
    05:00 +10°C° 0 mm 4 mps 763 mmHg 52%
    06:00 +11°C° 0 mm 4 mps 763 mmHg 49%
    07:00 +12°C° 0 mm 4 mps 763 mmHg 46%
    08:00 +13°C° 0 mm 4 mps 763 mmHg 42%
    09:00 +14°C° 0 mm 4 mps 762 mmHg 38%
    10:00 +17°C° 0 mm 4 mps 762 mmHg 34%
    11:00 +17°C° 0 mm 4 mps 762 mmHg 33%
    12:00 +18°C° 0 mm 4 mps 761 mmHg 33%
    13:00 +19°C° 0 mm 4 mps 761 mmHg 33%
    14:00 +19°C° 0 mm 4 mps 760 mmHg 33%
    15:00 +19°C° 0 mm 3 mps 760 mmHg 33%
    16:00 +19°C° 0 mm 3 mps 759 mmHg 33%
    17:00 +18°C° 0 mm 3 mps 759 mmHg 36%
    18:00 +17°C° 0 mm 3 mps 759 mmHg 38%
    19:00 +16°C° 0 mm 3 mps 759 mmHg 41%
    20:00 +16°C° 0.2 mm 3 mps 760 mmHg 42%
    21:00 +16°C° 0.2 mm 3 mps 760 mmHg 44%
    22:00 +14°C° 0.2 mm 3 mps 760 mmHg 45%
    23:00 +14°C° 0.3 mm 3 mps 759 mmHg 47%

    Day after tomorrow, 28 September, Friday

    Time Temperature Precipitation Wind Pressure Humidity
    00:00 +14°C° 0.3 mm 3 mps 759 mmHg 48%
    01:00 +14°C° 0.3 mm 3 mps 758 mmHg 50%
    02:00 +14°C° 0.3 mm 3 mps 758 mmHg 50%
    03:00 +14°C° 0.3 mm 3 mps 758 mmHg 50%
    04:00 +13°C° 0.3 mm 3 mps 757 mmHg 50%
    05:00 +14°C° 0.1 mm 3 mps 757 mmHg 50%
    06:00 +14°C° 0.1 mm 3 mps 757 mmHg 49%
    07:00 +14°C° 0.1 mm 3 mps 757 mmHg 49%
    08:00 +16°C° 0 mm 3 mps 757 mmHg 46%
    09:00 +17°C° 0 mm 3 mps 756 mmHg 43%
    10:00 +18°C° 0 mm 2 mps 756 mmHg 40%
    11:00 +19°C° 0.1 mm 2 mps 756 mmHg 41%
    12:00 +20°C° 0.1 mm 2 mps 755 mmHg 42%
    13:00 +20°C° 0.1 mm 2 mps 755 mmHg 43%
    14:00 +19°C° 0.5 mm 2 mps 754 mmHg 50%
    15:00 +18°C° 0.5 mm 2 mps 754 mmHg 56%
    16:00 +18°C° 0.5 mm 2 mps 753 mmHg 62%
    17:00 +17°C° 0.4 mm 2 mps 754 mmHg 66%
    18:00 +17°C° 0.4 mm 2 mps 754 mmHg 70%
    19:00 +16°C° 0.4 mm 2 mps 754 mmHg 74%
    20:00 +16°C° 0.3 mm 3 mps 754 mmHg 75%
    21:00 +16°C° 0.3 mm 3 mps 753 mmHg 75%
    22:00 +16°C° 0.3 mm 3 mps 753 mmHg 76%
    23:00 +16°C° 1.7 mm 3 mps 753 mmHg 77%

    29 September, Saturday

    Time Temperature Precipitation Wind Pressure Humidity
    00:00 +16°C° 1.7 mm 3 mps 753 mmHg 79%
    01:00 +16°C° 1.7 mm 3 mps 752 mmHg 81%
    02:00 +16°C° 1.6 mm 3 mps 752 mmHg 81%
    03:00 +16°C° 1.6 mm 3 mps 752 mmHg 81%
    04:00 +16°C° 1.6 mm 3 mps 751 mmHg 82%
    05:00 +16°C° 1.4 mm 3 mps 751 mmHg 81%
    06:00 +16°C° 1.4 mm 3 mps 751 mmHg 80%
    07:00 +17°C° 1.4 mm 3 mps 751 mmHg 79%
    08:00 +17°C° 1 mm 3 mps 751 mmHg 77%
    09:00 +18°C° 1 mm 3 mps 751 mmHg 75%
    10:00 +18°C° 1 mm 3 mps 751 mmHg 73%
    11:00 +19°C° 0.5 mm 3 mps 751 mmHg 70%
    12:00 +19°C° 0.5 mm 3 mps 750 mmHg 67%
    13:00 +20°C° 0.5 mm 3 mps 750 mmHg 64%
    14:00 +20°C° 0.2 mm 3 mps 750 mmHg 63%
    15:00 +21°C° 0.2 mm 2 mps 750 mmHg 62%
    16:00 +21°C° 0.2 mm 2 mps 750 mmHg 60%
    17:00 +20°C° 0.3 mm 2 mps 750 mmHg 65%
    18:00 +19°C° 0.3 mm 2 mps 751 mmHg 69%
    19:00 +18°C° 0.3 mm 2 mps 751 mmHg 73%
    20:00 +18°C° 0.2 mm 2 mps 752 mmHg 75%
    21:00 +18°C° 0.2 mm 2 mps 752 mmHg 76%
    22:00 +18°C° 0.2 mm 2 mps 752 mmHg 78%
    23:00 +18°C° 0.1 mm 2 mps 752 mmHg 78%

    30 September, Sunday

    Time Temperature Precipitation Wind Pressure Humidity
    00:00 +18°C° 0.1 mm 2 mps 752 mmHg 79%
    01:00 +17°C° 0.1 mm 2 mps 752 mmHg 80%
    02:00 +17°C° 0 mm 2 mps 753 mmHg 80%
    03:00 +17°C° 0 mm 2 mps 753 mmHg 80%
    04:00 +17°C° 0 mm 2 mps 753 mmHg 80%
    05:00 +18°C° 0 mm 2 mps 753 mmHg 77%
    06:00 +18°C° 0 mm 2 mps 753 mmHg 74%
    07:00 +19°C° 0 mm 2 mps 753 mmHg 72%
    08:00 +20°C° 0 mm 2 mps 753 mmHg 67%
    09:00 +23°C° 0 mm 2 mps 754 mmHg 61%
    10:00 +24°C° 0 mm 1 mps 754 mmHg 56%
    11:00 +25°C° 0 mm 2 mps 753 mmHg 55%
    12:00 +26°C° 0 mm 2 mps 753 mmHg 54%
    13:00 +26°C° 0 mm 2 mps 753 mmHg 52%
    14:00 +26°C° 0 mm 3 mps 753 mmHg 55%
    15:00 +25°C° 0 mm 3 mps 753 mmHg 58%
    16:00 +25°C° 0 mm 3 mps 753 mmHg 60%
    17:00 +24°C° 0 mm 2 mps 753 mmHg 66%
    18:00 +23°C° 0 mm 2 mps 754 mmHg 73%
    19:00 +20°C° 0 mm 2 mps 754 mmHg 79%
    20:00 +20°C° 0.3 mm 2 mps 754 mmHg 81%
    21:00 +20°C° 0.3 mm 2 mps 754 mmHg 84%
    22:00 +19°C° 0.3 mm 2 mps 754 mmHg 86%
    23:00 +19°C° 0.2 mm 2 mps 754 mmHg 87%

    1 October, Monday

    Time Temperature Precipitation Wind Pressure Humidity
    00:00 +20°C° 0.2 mm 1 mps 754 mmHg 88%
    01:00 +20°C° 0.2 mm 1 mps 754 mmHg 90%
    02:00 +20°C° 0.1 mm 1 mps 754 mmHg 91%
    03:00 +20°C° 0.1 mm 1 mps 753 mmHg 92%
    04:00 +19°C° 0.1 mm 1 mps 753 mmHg 93%
    05:00 +20°C° 0.1 mm 1 mps 753 mmHg 90%
    06:00 +21°C° 0.1 mm 1 mps 753 mmHg 87%
    07:00 +21°C° 0.1 mm 1 mps 753 mmHg 85%
    08:00 +23°C° 0.1 mm 2 mps 753 mmHg 77%
    09:00 +24°C° 0.1 mm 2 mps 753 mmHg 69%
    10:00 +26°C° 0.1 mm 2 mps 753 mmHg 61%
    11:00 +27°C° 0.3 mm 2 mps 752 mmHg 57%
    12:00 +27°C° 0.3 mm 3 mps 752 mmHg 53%
    13:00 +28°C° 0.3 mm 3 mps 751 mmHg 50%
    14:00 +28°C° 0.6 mm 3 mps 751 mmHg 50%
    15:00 +28°C° 0.6 mm 3 mps 751 mmHg 51%
    16:00 +28°C° 0.6 mm 3 mps 751 mmHg 52%
    17:00 +26°C° 0.4 mm 2 mps 751 mmHg 57%
    18:00 +25°C° 0.4 mm 2 mps 752 mmHg 61%
    19:00 +24°C° 0.4 mm 2 mps 752 mmHg 66%
    20:00 +23°C° 0.1 mm 2 mps 752 mmHg 68%
    21:00 +23°C° 0.1 mm 2 mps 752 mmHg 70%
    22:00 +22°C° 0.1 mm 1 mps 753 mmHg 72%
    23:00 +21°C° 0.1 mm 2 mps 753 mmHg 74%
    Show more